Wind_Speed
45 42 42 43 45 48 46 48 50 54 56 48 42 44 45 44 47 50 50 52 49 51 50 55 54 55 54 56 54 54 55 63 75 76 76 75 70 66 62 59 55 51 50
46 47 46 48 49 51 49 49 51 57 54 52 48 47 48 50 50 50 48 48 47 48 51 48 50 51 58 57 55 56 59 59 68 77 77 77 76 72 68 64 60 56 52
50 49 47 53 53 54 50 53 59 59 52 52 52 50 51 52 52 47 42 43 43 47 51 56 56 57 56 59 60 56 59 60 63 75 79 80 77 75 74 69 64 58 55
48 52 50 55 55 55 56 59 61 57 54 54 53 53 57 55 49 47 49 50 51 51 53 55 59 64 64 64 63 64 62 62 65 71 77 79 81 79 72 73 65 61 56
53 56 57 57 60 60 63 64 60 57 56 54 57 58 55 52 49 52 55 56 57 60 61 60 62 64 66 65 66 68 67 65 66 72 77 78 81 82 79 73 69 62 61
58 60 60 59 60 60 66 67 61 59 59 62 58 54 53 54 56 58 59 61 62 63 69 69 69 69 69 71 71 71 68 68 68 75 76 79 81 84 83 78 75 65 58
62 65 64 62 60 63 68 64 62 61 67 61 55 52 55 58 64 66 65 68 66 65 64 64 66 69 68 68 70 70 70 67 69 76 77 80 79 83 86 84 78 71 58
66 67 66 63 62 68 67 63 64 65 66 59 57 58 60 64 66 59 57 56 57 55 53 53 55 58 57 60 65 68 67 65 67 72 74 78 81 82 84 86 82 77 67
64 68 67 66 66 70 63 65 66 69 62 62 60 65 65 63 57 52 52 51 50 51 53 54 55 54 52 52 58 60 61 64 63 69 73 78 83 80 85 85 86 80 73
65 68 68 68 67 65 65 66 68 70 63 61 65 62 53 50 49 50 49 47 48 48 50 53 53 53 54 53 56 58 62 63 63 67 67 76 77 77 79 80 85 84 77
65 70 67 68 70 64 66 68 75 69 63 66 61 53 50 48 47 48 48 46 48 46 45 44 49 52 54 58 59 60 60 61 67 70 72 72 76 77 76 80 83 86 82
68 71 67 69 71 66 67 70 75 70 67 64 55 52 50 49 47 46 46 45 46 48 45 44 44 48 52 55 59 60 60 62 65 70 73 74 75 74 79 81 82 84 83
68 69 68 73 71 69 69 75 71 65 66 58 53 54 52 47 43 44 43 43 42 42 44 45 47 48 51 54 57 59 59 60 63 66 75 76 75 74 76 82 81 81 83
66 66 71 75 71 70 72 76 68 69 62 54 55 55 50 45 43 40 39 41 41 42 43 46 49 52 54 56 58 59 59 61 61 63 68 77 78 77 75 77 82 82 83
65 66 70 73 72 71 76 71 69 64 55 56 54 51 47 43 40 38 38 38 37 38 39 41 43 45 48 52 56 59 60 62 63 63 64 70 77 78 80 80 80 84 83
64 67 71 71 71 72 75 69 66 56 57 55 50 46 42 39 39 38 36 37 36 36 34 35 37 40 43 45 48 53 58 62 64 65 64 66 68 72 76 78 79 82 87
65 67 71 70 69 74 69 68 59 55 56 52 47 44 43 43 42 39 36 34 33 32 33 34 36 39 42 43 45 47 50 55 61 64 66 67 67 67 68 69 73 76 84
64 69 69 69 70 71 64 61 53 57 54 48 45 45 45 43 38 31 29 28 29 31 33 36 39 42 44 45 48 50 51 54 57 61 65 67 68 69 69 68 64 69 69
65 66 66 66 70 61 64 55 54 58 51 46 47 46 43 37 31 25 23 25 30 36 39 41 42 42 43 47 49 52 53 55 56 58 60 63 66 66 65 64 64 63 61
64 62 64 65 65 59 60 51 55 53 47 47 47 42 35 29 24 26 28 30 39 40 40 38 38 38 39 42 44 49 52 55 54 55 55 56 59 61 62 60 59 61 59
60 60 61 65 57 59 52 50 55 47 46 46 41 33 30 27 28 31 33 40 41 35 35 34 35 35 33 35 36 37 40 43 45 47 48 50 52 54 55 53 53 54 54
57 59 62 58 53 54 48 52 49 45 45 41 35 29 27 30 34 36 36 40 33 30 26 23 23 25 24 24 26 27 28 30 32 35 39 43 47 48 47 47 48 52 56
57 59 57 50 54 46 47 51 44 42 42 34 27 26 30 35 36 37 34 30 25 20 17 15 15 16 17 19 21 22 25 26 28 31 34 38 38 39 43 46 49 62 66
56 56 50 51 47 43 47 44 40 39 36 28 25 29 36 38 36 29 26 21 16 14 11 11 11 12 13 14 16 18 21 25 26 30 32 33 35 41 51 56 69 66 65
54 47 46 48 40 44 44 37 36 36 31 24 27 34 36 29 26 23 19 14 10 8 6 5 6 7 10 13 16 18 21 24 27 31 33 35 39 47 58 73 74 73 62
45 42 46 39 39 43 38 33 34 32 23 23 30 31 29 24 23 18 12 8 5 2 2 3 6 7 8 10 13 17 20 22 24 27 27 32 42 54 62 79 72 71 64
Wind_Direction
314 315 317 310 311 309 306 302 304 309 308 298 291 288 287 289 291 284 277 270 261 257 254 246 249 254 255 255 253 253 250 241 241 239 242 243 240 239 237 237 239 242 249
318 313 321 319 312 311 310 308 306 310 305 296 291 287 285 288 289 284 273 264 256 251 250 250 249 251 251 256 257 255 251 253 244 238 240 242 242 240 239 235 237 240 241
314 313 317 315 313 314 312 310 311 308 301 293 289 287 292 292 288 274 257 250 255 258 257 252 256 252 251 250 252 254 253 254 250 239 237 239 239 240 240 239 236 236 239
312 315 312 309 316 315 313 310 311 307 301 293 289 294 296 292 279 264 255 254 256 259 262 262 258 255 253 251 252 251 255 252 253 243 236 237 236 235 239 239 238 235 237
312 315 311 309 313 314 312 311 311 308 301 298 299 297 292 288 277 270 260 255 255 258 260 266 264 262 259 256 254 250 252 253 249 240 235 235 235 234 234 236 235 234 235
309 310 311 310 316 313 312 310 311 306 303 302 297 291 291 289 286 281 275 263 260 259 258 261 262 259 257 256 255 251 248 249 245 237 232 233 232 233 232 234 235 231 231
307 307 311 312 317 313 312 311 310 308 307 304 300 296 294 292 289 285 281 276 268 265 264 263 258 255 252 253 252 250 250 244 240 235 231 230 231 230 231 231 232 231 228
305 308 311 315 316 313 312 312 312 309 308 304 300 298 293 290 289 282 281 278 271 267 264 261 258 251 252 251 248 248 247 241 236 234 230 230 229 230 229 229 229 230 226
304 307 312 315 312 312 312 311 311 312 306 304 301 301 294 289 286 281 280 275 270 267 264 263 259 252 250 247 246 244 240 236 236 234 230 231 230 228 229 228 228 226 225
305 308 309 311 307 312 312 312 312 311 306 304 305 300 294 289 287 282 281 278 273 267 262 261 255 251 245 241 241 240 238 236 234 232 233 230 232 231 231 230 229 228 224
306 307 307 306 310 312 312 314 312 308 307 306 303 296 294 295 292 285 280 277 278 273 266 259 250 248 248 244 241 239 240 238 234 231 229 230 233 229 230 230 228 227 225
302 306 305 307 312 314 313 312 311 308 309 310 304 299 299 299 293 287 280 277 273 268 265 260 252 249 247 244 244 243 241 238 238 233 231 230 231 232 231 230 230 229 224
303 304 305 308 312 311 313 311 309 308 311 309 306 305 302 299 293 283 276 272 267 263 260 259 258 251 246 245 244 246 244 241 240 237 231 231 230 230 229 229 229 229 227
301 304 306 309 310 311 312 310 311 312 312 308 306 306 302 299 294 284 279 276 271 266 262 259 255 251 248 246 245 243 242 242 239 238 235 231 229 229 229 228 228 229 229
302 304 307 308 309 311 311 311 313 313 311 313 311 307 304 300 294 288 283 277 273 269 263 259 256 254 252 248 247 245 242 240 239 236 233 231 229 229 230 229 229 228 227
301 304 305 308 309 309 310 313 316 312 317 316 311 309 307 303 298 294 291 283 280 274 268 264 261 258 257 254 248 243 240 239 237 236 234 232 231 230 230 231 230 227 228
299 303 304 306 307 309 312 316 315 316 319 315 313 309 307 306 302 300 291 286 279 273 269 262 258 254 251 249 246 243 240 237 236 236 233 232 232 230 230 228 228 228 226
299 301 303 305 308 308 312 314 314 320 317 315 312 314 310 305 301 295 289 286 281 277 274 271 264 255 249 246 243 241 239 236 232 231 232 233 232 231 230 227 226 223 225
297 299 302 304 306 309 312 311 320 318 315 315 315 313 308 302 298 295 288 284 283 286 282 277 270 262 254 250 246 243 241 239 236 233 232 231 231 232 232 229 224 220 220
294 297 300 304 305 308 310 314 319 316 316 318 316 310 303 299 297 289 287 283 295 290 283 278 270 263 256 251 246 242 241 241 238 236 233 231 230 231 231 228 223 218 212
293 297 299 302 306 307 308 320 318 314 321 317 314 304 297 299 301 298 291 298 298 286 280 274 268 261 252 247 243 239 237 237 235 231 230 228 226 225 224 222 216 210 203
293 295 300 303 305 306 312 319 315 322 318 315 308 298 301 305 301 300 297 298 292 283 281 275 266 256 246 238 234 230 228 226 221 217 216 216 216 215 212 204 199 191 184
291 296 301 304 304 306 317 316 317 321 317 314 305 308 310 304 301 300 299 294 288 286 282 271 259 247 241 234 230 226 222 219 215 213 208 208 207 204 194 185 179 167 166
293 298 300 303 305 312 316 314 320 317 317 311 309 315 310 305 304 306 302 297 296 288 279 266 251 241 231 226 220 217 213 207 203 202 202 202 193 188 178 171 162 165 165
293 298 302 304 306 313 315 320 320 318 313 307 316 313 312 310 313 315 308 301 292 286 273 257 245 230 213 205 197 194 194 191 191 193 198 192 181 177 174 163 158 159 165
293 301 303 297 307 316 319 320 319 317 308 316 317 314 316 316 316 318 311 295 285 284 226 175 162 158 174 174 182 177 176 173 177 183 185 180 170 172 164 158 160 169 174
Height
10933 10931 10927 10922 10918 10913 10910 10906 10903 10899 10896 10893 10889 10887 10885 10883 10880 10877 10874 10871 10872 10873 10874 10878 10879 10880 10880 10883 10884 10886 10890 10892 10896 10902 10907 10912 10917 10922 10929 10936 10940 10944 10947
10925 10922 10919 10914 10908 10904 10901 10898 10894 10889 10884 10880 10877 10875 10873 10871 10868 10865 10861 10860 10860 10860 10862 10863 10865 10866 10868 10869 10871 10873 10877 10880 10883 10888 10894 10899 10906 10912 10918 10925 10932 10938 10941
10918 10914 10910 10905 10899 10895 10892 10888 10883 10878 10873 10870 10866 10862 10859 10856 10853 10852 10850 10849 10848 10847 10846 10847 10848 10851 10854 10856 10857 10861 10864 10866 10870 10874 10880 10886 10894 10903 10908 10914 10922 10930 10934
10911 10908 10902 10897 10891 10886 10881 10876 10871 10865 10860 10856 10852 10848 10843 10840 10838 10837 10837 10835 10834 10833 10832 10830 10831 10833 10837 10840 10843 10846 10850 10854 10856 10861 10867 10872 10880 10890 10896 10903 10912 10921 10927
10903 10900 10895 10888 10882 10875 10867 10864 10859 10853 10848 10843 10839 10833 10828 10825 10823 10820 10819 10818 10817 10817 10816 10815 10815 10815 10818 10821 10826 10829 10832 10837 10841 10845 10851 10857 10865 10874 10883 10892 10902 10912 10919
10894 10889 10884 10879 10873 10865 10857 10851 10846 10842 10836 10831 10824 10818 10813 10807 10804 10801 10798 10798 10796 10797 10799 10798 10798 10798 10801 10804 10806 10810 10816 10819 10824 10830 10835 10842 10849 10861 10869 10879 10891 10900 10909
10882 10877 10872 10867 10861 10853 10847 10839 10833 10827 10821 10814 10808 10803 10799 10793 10787 10782 10779 10776 10776 10777 10778 10779 10778 10780 10782 10785 10787 10791 10797 10803 10808 10815 10819 10827 10835 10843 10853 10866 10877 10889 10899
10870 10865 10859 10855 10849 10841 10834 10826 10821 10814 10807 10800 10793 10789 10784 10778 10770 10764 10761 10758 10757 10756 10758 10759 10761 10764 10767 10768 10770 10776 10781 10787 10792 10800 10805 10812 10822 10828 10839 10849 10863 10878 10888
10860 10854 10848 10844 10838 10831 10822 10816 10808 10801 10794 10786 10779 10772 10766 10760 10754 10750 10747 10746 10744 10743 10742 10743 10744 10747 10751 10753 10755 10760 10766 10772 10778 10786 10791 10800 10809 10814 10825 10836 10848 10862 10875
10850 10843 10837 10834 10827 10819 10810 10804 10796 10789 10782 10773 10765 10756 10749 10744 10739 10735 10733 10731 10729 10728 10728 10728 10729 10732 10735 10740 10742 10746 10751 10757 10766 10773 10780 10789 10794 10803 10812 10823 10835 10848 10861
10838 10831 10828 10822 10816 10808 10799 10790 10783 10776 10767 10759 10749 10742 10736 10730 10726 10722 10719 10717 10713 10713 10713 10714 10716 10719 10722 10726 10729 10734 10740 10745 10751 10759 10766 10775 10781 10791 10799 10810 10821 10833 10848
10827 10822 10816 10810 10803 10795 10787 10779 10770 10760 10752 10741 10735 10728 10722 10717 10713 10709 10706 10704 10702 10700 10700 10701 10704 10707 10709 10712 10715 10720 10726 10730 10735 10744 10752 10761 10769 10777 10786 10795 10807 10819 10833
10818 10812 10805 10798 10791 10784 10775 10768 10758 10748 10738 10728 10721 10714 10708 10704 10700 10696 10693 10690 10689 10688 10688 10688 10689 10692 10694 10697 10701 10704 10710 10714 10720 10727 10736 10744 10754 10763 10771 10781 10792 10805 10819
10807 10802 10795 10788 10782 10772 10765 10757 10745 10735 10725 10717 10708 10701 10696 10691 10688 10683 10681 10679 10677 10676 10675 10675 10676 10677 10680 10682 10685 10690 10695 10700 10707 10713 10720 10727 10739 10748 10757 10768 10780 10792 10805
10797 10792 10785 10778 10771 10761 10755 10744 10733 10723 10714 10704 10697 10690 10684 10680 10676 10672 10669 10667 10665 10665 10664 10663 10662 10663 10665 10669 10671 10676 10681 10686 10691 10698 10705 10712 10722 10733 10743 10753 10765 10780 10792
10788 10782 10774 10768 10760 10753 10743 10731 10722 10712 10702 10693 10687 10679 10674 10669 10665 10661 10658 10656 10652 10652 10650 10649 10650 10649 10650 10652 10656 10659 10664 10669 10676 10683 10692 10700 10708 10718 10729 10741 10752 10763 10778
10777 10772 10765 10758 10751 10742 10731 10721 10712 10702 10693 10684 10677 10670 10664 10659 10654 10651 10648 10645 10644 10641 10641 10640 10639 10639 10639 10639 10640 10643 10648 10654 10661 10668 10677 10686 10694 10703 10714 10725 10736 10750 10764
10768 10762 10755 10749 10741 10732 10722 10713 10703 10693 10685 10677 10669 10661 10655 10650 10645 10643 10640 10638 10636 10633 10630 10628 10627 10626 10627 10628 10628 10630 10634 10638 10645 10653 10662 10671 10681 10689 10700 10712 10725 10738 10750
10760 10754 10747 10740 10732 10723 10714 10704 10695 10685 10677 10669 10660 10653 10647 10642 10639 10637 10635 10632 10628 10624 10620 10617 10614 10613 10614 10614 10617 10619 10621 10625 10632 10640 10649 10659 10667 10676 10688 10701 10715 10727 10741
10751 10746 10739 10732 10724 10714 10706 10696 10687 10678 10669 10660 10652 10646 10641 10637 10634 10631 10628 10624 10618 10613 10607 10604 10602 10600 10600 10602 10604 10606 10609 10613 10621 10628 10638 10647 10656 10666 10676 10689 10702 10717 10734
10743 10737 10732 10724 10715 10706 10697 10688 10679 10670 10660 10653 10646 10641 10636 10632 10628 10624 10619 10612 10606 10600 10596 10592 10590 10589 10590 10591 10593 10596 10599 10603 10610 10619 10627 10636 10645 10653 10664 10678 10694 10711 10730
10733 10729 10722 10714 10706 10698 10689 10681 10672 10660 10653 10647 10641 10636 10631 10626 10621 10616 10609 10602 10595 10590 10586 10584 10582 10581 10583 10584 10586 10588 10592 10597 10603 10611 10619 10627 10635 10645 10657 10670 10686 10703 10724
10725 10719 10713 10706 10698 10689 10681 10673 10663 10654 10648 10641 10636 10631 10625 10620 10614 10607 10599 10592 10587 10583 10580 10578 10577 10578 10578 10580 10581 10583 10587 10593 10600 10607 10613 10620 10630 10641 10652 10664 10679 10698 10714
10716 10710 10704 10697 10689 10682 10674 10665 10656 10649 10642 10636 10631 10625 10620 10613 10605 10597 10590 10585 10581 10578 10576 10574 10574 10574 10575 10576 10577 10580 10584 10589 10596 10602 10609 10617 10626 10636 10647 10660 10678 10694 10710
10708 10702 10696 10689 10682 10675 10666 10657 10650 10643 10638 10632 10627 10620 10614 10606 10597 10590 10585 10581 10578 10576 10574 10573 10573 10573 10574 10575 10575 10578 10583 10588 10593 10599 10605 10613 10623 10635 10647 10663 10679 10697 10710
10700 10695 10689 10682 10675 10667 10658 10651 10645 10639 10633 10629 10623 10616 10608 10600 10593 10587 10583 10579 10577 10575 10574 10574 10574 10574 10575 10576 10577 10580 10585 10589 10594 10599 10606 10615 10625 10638 10651 10668 10682 10696 10708